Details From CYZH - SLAVE LAKE
To PAGY - SKAGWAY
Flight Number -
Tags generated
Created
Modified
Stats Distance 739 nm / 1,368 km
Max Altitude 34,000 ft / 10,363 m
Waypoints 5
Social Downloads 23
Likes 0
Share

Download

Looking for another format? Having issues loading an existing format? Contact us
Advertisement - Login to hide

Notes

Basic altitude profile: - Ascent Rate: 2500ft/min - Ascent Speed: 250kts - Cruise Altitude: 35000ft - Cruise Speed: 420kts - Descent Rate: 1500ft/min - Descent Speed: 250kts Options: - Use NATs: yes - Use PACOTS: yes - Use low airways: yes - Use high airways: yes

Route

CYZH YPE NCA12 KITAR PAGY

ID Type Via Altitude (ft/m) Position (lat/lon) Dist (leg/tot) Name
O CYZH APT - 0 / 0 55.29330 / -114.77831 - / 0 nm SLAVE LAKE
YPE VOR - 34,000 / 10,363 56.20692 / -117.51181 107 / 107 nm PEACE RIVER VOR-DME
IGSEL FIX NCA12 (AWY-HI) 34,000 / 10,363 58.22778 / -125.00000 271 / 379 nm
KITAR FIX NCA12 (AWY-HI) 28,000 / 8,534 60.00000 / -135.00000 325 / 705 nm
O PAGY APT - 0 / 0 59.46006 / -135.31566 33 / 738 nm SKAGWAY

Altitude Profile

Advertisement - Login to hide

Weather


0- 5 10 15 20 25 30 35+ Temperature / °C

Clouds and Precipitation
Forecast for 2022-05-20 00:00 UTC. Updated 6 hours ago

Ground ~20,000 ft ~40,000 ft Winds

CYZH

Details ICAO CYZH (YZH)
Name SLAVE LAKE
Region Canada
Timezone America/Edmonton (UTC-6.0)
Stats Elevation 1,912 ft / 583 m (AMSL)
Location 55.293300° -114.778000°
Runways 1
Magnetic Variation 14.471° E

METAR

CYZH 200300Z AUTO 33005KT 300V010 9SM OVC066 08/01 A3006 RMK SLP198

Decode

TAF

TAF CYZH 200040Z 2001/2013 34008KT P6SM BKN040 TEMPO 2001/2003 P6SM -SHRA BKN020 FM200500 VRB03KT P6SM SCT060 RMK FCST BASED ON AUTO OBS. NXT FCST BY 200700Z

Decode

Departure Runways

ID Width Length Bearing (true/mag) Surface Threshold Overrun Markings Lighting
10 100 ft / 30 m 5,535 ft / 1,687 m 114.74° / 100.27° ASPHALT 0 ft / 0 m 0 ft / 0 m APP EDGE THRESHOLD
28 100 ft / 30 m 5,535 ft / 1,687 m 294.76° / 280.29° ASPHALT 557 ft / 170 m 0 ft / 0 m APP EDGE THRESHOLD

PAGY

Details ICAO PAGY (SGY)
Name SKAGWAY
Region USA (Alaska)
Timezone America/Juneau (UTC-8.0)
Stats Elevation 44 ft / 13 m (AMSL)
Location 59.460100° -135.316000°
Runways 1
Magnetic Variation 17.962° E

METAR

PAGY 200253Z AUTO 23003KT 10SM CLR 17/M02 A3034 RMK AO2 SLP273 T01721017 52005 TSNO

Decode

TAF

PAGY 192339Z 2000/2024 04005KT P6SM FEW200 TEMPO 2000/2002 21008KT FM200400 03005KT P6SM SKC AMD LTD TO CLD VIS AND WIND

Decode

Destination Runways

ID Width Length Bearing (true/mag) Surface Threshold Overrun Markings Lighting
02 75 ft / 23 m 3,542 ft / 1,080 m 43.94° / 25.98° ASPHALT 0 ft / 0 m 299 ft / 91 m APP EDGE THRESHOLD REIL-OMNI
20 75 ft / 23 m 3,542 ft / 1,080 m 223.95° / 205.99° ASPHALT 0 ft / 0 m 299 ft / 91 m APP EDGE THRESHOLD REIL-OMNI